Weather History for Cordova, AK

Change the Weather History Date:

Tuesday, January 8, 2013

  Actual Average Record
Temperature  
Mean Temperature 29 °F -  
Max Temperature 37 °F 29 °F 53 °F (2005)
Min Temperature 21 °F 12 °F -12 °F (1975)
Degree Days  
Heating Degree Days 36    
Moisture  
Dew Point 27 °F    
Average Humidity 84    
Maximum Humidity 92    
Minimum Humidity 70    
Precipitation  
Precipitation 0.00 in - - ()
Sea Level Pressure  
Sea Level Pressure 29.63 in    
Wind  
Wind Speed 2 mph (East)    
Max Wind Speed 5 mph    
Max Gust Speed -    
Visibility 10 miles    
Events Rain    
Averages and records for this station are not official NWS values.
T = Trace of Precipitation, MM = Missing Value Source: NWS Daily Summary

Daily Weather History Graph

Daily Weather History Graph

Search for Another Location

Airport:

Trip Planner

Search our weather history database for the weather conditions in past years. The results will help you decide how hot, cold, wet, or windy it might be!

Date:

Astronomy

Jan. 08, 2013 Rise Set
Actual Time 9:42 AM AKST 3:55 PM AKST
Civil Twilight 8:46 AM AKST 4:51 PM AKST
Nautical Twilight 7:49 AM AKST 5:48 PM AKST
Astronomical Twilight 6:58 AM AKST 6:39 PM AKST
Moon 6:21 AM AKST (1/8) 1:08 PM AKST (1/8)
Length of Visible Light 8h 05m
Length of Day
6h 13m
Waning Crescent, 12% of the Moon is Illuminated
Jan 8
Waning Crescent
Jan 11
New
Jan 18
First Quarter
Jan 26
Full
Feb 3
Last Quarter

Hourly Weather History & Observations

Time (AKST) Temp. Windchill Dew Point Humidity Pressure Visibility Wind Dir Wind Speed Gust Speed Precip Events Conditions
12:53 AM 37.0 °F 34.5 °F 30.0 °F 76% 29.42 in 10.0 mi East 3.5 mph - 0.00 in Rain Light Rain
1:53 AM 35.1 °F - 30.0 °F 82% 29.43 in 10.0 mi Calm Calm - 0.00 in   Mostly Cloudy
2:53 AM 37.0 °F 34.5 °F 28.9 °F 73% 29.45 in 10.0 mi ENE 3.5 mph - N/A   Overcast
3:53 AM 33.1 °F - 28.9 °F 85% 29.47 in 10.0 mi Calm Calm - N/A   Overcast
4:53 AM 36.0 °F 32.1 °F 28.0 °F 73% 29.48 in 10.0 mi East 4.6 mph - N/A   Overcast
5:53 AM 36.0 °F 33.3 °F 30.0 °F 79% 29.50 in 10.0 mi ENE 3.5 mph - N/A   Overcast
6:53 AM 34.0 °F - 30.0 °F 85% 29.52 in 10.0 mi Calm Calm - N/A   Mostly Cloudy
7:53 AM 37.0 °F - 28.9 °F 73% 29.55 in 10.0 mi Calm Calm - N/A   Overcast
8:53 AM 34.0 °F - 28.9 °F 82% 29.57 in 10.0 mi Calm Calm - N/A   Mostly Cloudy
9:53 AM 30.9 °F - 28.0 °F 89% 29.60 in 10.0 mi Calm Calm - N/A   Mostly Cloudy
10:53 AM 30.9 °F - 28.0 °F 89% 29.62 in 10.0 mi Calm Calm - N/A   Mostly Cloudy
11:53 AM 35.1 °F - 30.0 °F 82% 29.64 in 10.0 mi Calm Calm - N/A   Mostly Cloudy
12:53 PM 37.0 °F 34.5 °F 28.0 °F 70% 29.66 in 10.0 mi SW 3.5 mph - N/A   Mostly Cloudy
1:53 PM 36.0 °F 32.1 °F 28.9 °F 76% 29.68 in 10.0 mi West 4.6 mph - N/A   Scattered Clouds
2:53 PM 34.0 °F - 28.9 °F 82% 29.70 in 10.0 mi Calm Calm - N/A   Scattered Clouds
3:53 PM 30.0 °F - 28.0 °F 92% 29.70 in 10.0 mi Calm Calm - N/A   Scattered Clouds
4:53 PM 28.0 °F - 26.1 °F 92% 29.73 in 10.0 mi Calm Calm - N/A   Scattered Clouds
5:53 PM 26.1 °F - 24.1 °F 92% 29.74 in 10.0 mi Calm Calm - N/A   Scattered Clouds
6:53 PM 25.0 °F 20.7 °F 21.9 °F 88% 29.76 in 10.0 mi South 3.5 mph - N/A   Scattered Clouds
8:53 PM 23.0 °F - 21.0 °F 92% 29.81 in 10.0 mi Calm Calm - N/A   Clear
9:53 PM 21.9 °F - 19.9 °F 92% 29.83 in 10.0 mi Calm Calm - N/A   Clear
10:53 PM 21.0 °F - 18.0 °F 88% 29.85 in 10.0 mi Calm Calm - N/A   Clear
11:53 PM 21.0 °F - 19.0 °F 92% 29.87 in 10.0 mi Calm Calm - N/A   Clear